TimeEDT,TemperatureF,Dew PointF,Humidity,Sea Level PressureIn,VisibilityMPH,Wind Direction,Wind SpeedMPH,Gust SpeedMPH,PrecipitationIn,Events,Conditions,WindDirDegrees,DateUTC
12:31 AM,62.6,62.6,100,29.91,10.0,West,8.1,-,N/A,,Overcast,260,2012-10-03 04:31:00
12:55 AM,63.1,62.8,99,29.91,10.0,WSW,5.8,-,N/A,,Overcast,250,2012-10-03 04:55:00
1:55 AM,61.5,59.9,94,29.92,10.0,Calm,Calm,-,N/A,Fog,Shallow Fog,0,2012-10-03 05:55:00
2:55 AM,62.1,61.7,99,29.95,9.0,South,4.6,-,N/A,Fog,Shallow Fog,180,2012-10-03 06:55:00
3:55 AM,60.6,57.4,89,29.95,10.0,South,4.6,-,N/A,,Partly Cloudy,170,2012-10-03 07:55:00
4:13 AM,60.8,59.0,94,29.96,10.0,South,4.6,-,N/A,,Mostly Cloudy,170,2012-10-03 08:13:00
4:55 AM,61.2,59.0,93,29.97,10.0,South,3.5,-,N/A,,Overcast,180,2012-10-03 08:55:00
5:51 AM,60.8,55.4,82,29.99,10.0,SW,5.8,-,N/A,,Overcast,230,2012-10-03 09:51:00
5:55 AM,60.4,55.6,84,29.99,10.0,SW,5.8,-,N/A,,Overcast,220,2012-10-03 09:55:00
6:55 AM,58.6,53.1,82,30.00,10.0,SSW,4.6,-,N/A,,Overcast,210,2012-10-03 10:55:00
7:34 AM,59.0,53.6,82,30.02,10.0,South,8.1,-,N/A,,Overcast,190,2012-10-03 11:34:00
7:55 AM,59.2,52.2,78,30.02,10.0,South,8.1,-,N/A,,Overcast,190,2012-10-03 11:55:00
8:55 AM,58.6,50.0,73,30.04,10.0,South,9.2,-,N/A,,Overcast,180,2012-10-03 12:55:00
9:55 AM,59.4,48.9,68,30.06,10.0,SSW,9.2,-,N/A,,Overcast,200,2012-10-03 13:55:00
10:55 AM,59.5,48.6,67,30.08,10.0,SSW,9.2,-,N/A,,Overcast,210,2012-10-03 14:55:00
10:58 AM,59.0,48.2,67,30.08,10.0,SSW,6.9,-,N/A,,Overcast,210,2012-10-03 14:58:00
11:55 AM,60.8,49.3,66,30.08,10.0,SSW,11.5,-,N/A,,Mostly Cloudy,200,2012-10-03 15:55:00
12:55 PM,63.3,49.5,61,30.09,10.0,SSW,10.4,-,N/A,,Overcast,210,2012-10-03 16:55:00
1:21 PM,64.4,48.2,56,30.09,10.0,SW,10.4,-,N/A,,Mostly Cloudy,220,2012-10-03 17:21:00
1:55 PM,64.8,48.6,56,30.08,10.0,SSW,13.8,-,N/A,,Overcast,200,2012-10-03 17:55:00
2:55 PM,66.0,48.4,53,30.06,10.0,SSW,11.5,-,N/A,,Mostly Cloudy,200,2012-10-03 18:55:00
3:55 PM,66.9,48.0,51,30.06,10.0,South,10.4,-,N/A,,Overcast,180,2012-10-03 19:55:00
4:55 PM,67.8,47.8,49,30.06,10.0,South,12.7,-,N/A,,Mostly Cloudy,170,2012-10-03 20:55:00
5:55 PM,66.7,47.3,50,30.07,10.0,South,10.4,-,N/A,,Mostly Cloudy,170,2012-10-03 21:55:00
6:55 PM,65.8,47.7,52,30.08,10.0,SSE,5.8,-,N/A,,Mostly Cloudy,160,2012-10-03 22:55:00
7:55 PM,64.4,47.5,54,30.09,10.0,SSE,6.9,-,N/A,,Mostly Cloudy,160,2012-10-03 23:55:00
8:55 PM,63.5,47.8,57,30.11,10.0,SSE,8.1,-,N/A,,Mostly Cloudy,160,2012-10-04 00:55:00
9:55 PM,61.5,48.2,62,30.12,10.0,South,5.8,-,N/A,,Partly Cloudy,170,2012-10-04 01:55:00
10:55 PM,60.8,48.0,63,30.12,10.0,SSW,4.6,-,N/A,,Clear,200,2012-10-04 02:55:00
11:55 PM,57.2,47.5,70,30.15,10.0,South,5.8,-,N/A,,Clear,180,2012-10-04 03:55:00